軌道要素
Epoch 2023 Feb. 25.0 TT = JDT 2460000.5
T 2021 Nov. 13.28139 TT Rudenko
q 3.2721480 (2000.0) P Q
z -0.0003342 Peri. 203.57871 -0.63031461 +0.76640308
+/-0.0000004 Node 332.16039 +0.74778596 +0.64221622
e 1.0010934 Incl. 164.62552 +0.20861363 +0.01358869
>From 208 observations 2021 Jan. 23-2022 Dec. 15, mean residual 0".5.
|